| time (UTC) | temp F | wind direction | speed MPH | gust MPH | rain 1hr in | rain 24hr in | rain mn in | humidity % | barometer mb |
| 20260906052003 | 73 | 0 | 0.0 | 0.0 | 0.00 | 0.00 | 0.00 | 94 | 1012.2 |
| 20260906051503 | 73 | 0 | 0.0 | 0.0 | 0.00 | 0.00 | 0.00 | 94 | 1012.2 |
| 20260906051003 | 73 | 0 | 0.0 | 0.0 | 0.00 | 0.00 | 0.00 | 94 | 1012.4 |
| 20260906050503 | 73 | 0 | 0.0 | 0.0 | 0.00 | 0.00 | 0.00 | 93 | 1012.3 |
| 20260906050003 | 73 | 0 | 0.0 | 0.0 | 0.00 | 0.00 | 0.00 | 93 | 1012.3 |
| 20260906045524 | 73 | 103 | 0.0 | 1.0 | 0.00 | 0.00 | 0.00 | 93 | 1012.3 |
| 20260906045003 | 73 | 103 | 0.0 | 1.0 | 0.00 | 0.00 | 0.00 | 93 | 1012.4 |
| 20260906044503 | 73 | 0 | 0.0 | 0.0 | 0.00 | 0.00 | 0.00 | 93 | 1012.4 |
| 20260906044003 | 73 | 103 | 0.0 | 1.0 | 0.00 | 0.00 | 0.00 | 93 | 1012.4 |
| 20260906043503 | 73 | 103 | 0.0 | 1.0 | 0.00 | 0.00 | 0.00 | 93 | 1012.3 |
| 20260906043003 | 73 | 103 | 0.0 | 1.0 | 0.00 | 0.00 | 0.00 | 93 | 1012.3 |
| 20260906042503 | 73 | 0 | 0.0 | 0.0 | 0.00 | 0.00 | 0.00 | 93 | 1012.3 |
| 20260906042003 | 74 | 103 | 0.0 | 1.0 | 0.00 | 0.00 | 0.00 | 93 | 1012.2 |
| 20260906041503 | 74 | 103 | 0.0 | 1.0 | 0.00 | 0.00 | 0.00 | 93 | 1012.2 |
| 20260906041003 | 74 | 103 | 1.0 | 2.0 | 0.00 | 0.00 | 0.00 | 94 | 1012.4 |
| 20260906040503 | 74 | 105 | 1.0 | 2.0 | 0.00 | 0.00 | 0.00 | 94 | 1012.4 |
| 20260906040004 | 73 | 108 | 1.0 | 2.0 | 0.00 | 0.00 | 0.00 | 94 | 1012.4 |
| 20260906035503 | 73 | 109 | 1.0 | 1.0 | 0.00 | 0.00 | 0.00 | 94 | 1012.4 |
| 20260906035003 | 73 | 109 | 1.0 | 1.0 | 0.00 | 0.00 | 0.00 | 94 | 1012.3 |
| 20260906034503 | 73 | 109 | 0.0 | 1.0 | 0.00 | 0.00 | 0.00 | 94 | 1012.3 |
| 20260906034003 | 73 | 0 | 0.0 | 0.0 | 0.00 | 0.00 | 0.00 | 93 | 1012.4 |
| 20260906033503 | 73 | 108 | 0.0 | 1.0 | 0.00 | 0.00 | 0.00 | 93 | 1012.5 |
| 20260906033003 | 74 | 108 | 0.0 | 1.0 | 0.00 | 0.00 | 0.00 | 93 | 1012.5 |
| 20260906032503 | 74 | 0 | 0.0 | 0.0 | 0.00 | 0.00 | 0.00 | 93 | 1012.4 |
| 20260906032003 | 74 | 108 | 0.0 | 1.0 | 0.00 | 0.00 | 0.00 | 93 | 1012.4 |
| 20260906031503 | 74 | 109 | 0.0 | 1.0 | 0.00 | 0.00 | 0.00 | 93 | 1012.4 |
| 20260906031003 | 74 | 109 | 0.0 | 1.0 | 0.00 | 0.00 | 0.00 | 93 | 1012.4 |
| 20260906030503 | 74 | 109 | 0.0 | 1.0 | 0.00 | 0.00 | 0.00 | 93 | 1012.5 |
| 20260906030003 | 74 | 109 | 0.0 | 1.0 | 0.00 | 0.00 | 0.00 | 93 | 1012.4 |
| 20260906025503 | 74 | 0 | 0.0 | 0.0 | 0.00 | 0.00 | 0.00 | 93 | 1012.3 |
| 20260906025003 | 74 | 0 | 0.0 | 0.0 | 0.00 | 0.00 | 0.00 | 92 | 1012.4 |
| 20260906024503 | 74 | 0 | 0.0 | 0.0 | 0.00 | 0.00 | 0.00 | 93 | 1012.4 |
| 20260906024003 | 74 | 109 | 0.0 | 1.0 | 0.00 | 0.00 | 0.00 | 93 | 1012.4 |
| 20260906023503 | 74 | 109 | 0.0 | 1.0 | 0.00 | 0.00 | 0.00 | 93 | 1012.5 |
| 20260906023003 | 74 | 108 | 0.0 | 1.0 | 0.00 | 0.00 | 0.00 | 92 | 1012.4 |
| 20260906022503 | 74 | 108 | 0.0 | 1.0 | 0.00 | 0.00 | 0.00 | 92 | 1012.5 |
| 20260906022003 | 74 | 108 | 0.0 | 1.0 | 0.00 | 0.00 | 0.00 | 92 | 1012.5 |
| 20260906021503 | 74 | 0 | 0.0 | 0.0 | 0.00 | 0.00 | 0.00 | 91 | 1012.4 |
| 20260906021003 | 75 | 0 | 0.0 | 0.0 | 0.00 | 0.00 | 0.00 | 91 | 1012.4 |
| 20260906020503 | 75 | 0 | 0.0 | 0.0 | 0.00 | 0.00 | 0.00 | 91 | 1012.4 |
| 20260906020003 | 75 | 0 | 0.0 | 0.0 | 0.00 | 0.00 | 0.00 | 91 | 1012.4 |
| 20260906015503 | 75 | 0 | 0.0 | 0.0 | 0.00 | 0.00 | 0.00 | 90 | 1012.3 |
| 20260906015024 | 75 | 108 | 0.0 | 1.0 | 0.00 | 0.00 | 0.00 | 90 | 1012.3 |
| 20260906014503 | 75 | 108 | 0.0 | 1.0 | 0.00 | 0.00 | 0.00 | 90 | 1012.2 |
| 20260906014003 | 76 | 108 | 0.0 | 1.0 | 0.00 | 0.00 | 0.00 | 90 | 1012.0 |
| 20260906013503 | 76 | 110 | 0.0 | 1.0 | 0.00 | 0.00 | 0.00 | 90 | 1012.1 |
| 20260906013003 | 76 | 109 | 0.0 | 2.0 | 0.00 | 0.00 | 0.00 | 90 | 1012.0 |
| 20260906012503 | 76 | 82 | 1.0 | 3.0 | 0.00 | 0.00 | 0.00 | 90 | 1012.0 |
| 20260906012003 | 75 | 58 | 1.0 | 3.0 | 0.00 | 0.00 | 0.00 | 90 | 1011.9 |
| 20260906011524 | 75 | 44 | 0.0 | 3.0 | 0.00 | 0.00 | 0.00 | 90 | 1011.8 |
| 20260906011003 | 75 | 0 | 0.0 | 0.0 | 0.00 | 0.00 | 0.00 | 90 | 1011.6 |
| 20260906010503 | 76 | 0 | 0.0 | 0.0 | 0.00 | 0.00 | 0.00 | 89 | 1011.6 |
| 20260906010024 | 76 | 0 | 0.0 | 0.0 | 0.00 | 0.00 | 0.00 | 89 | 1011.7 |
| 20260906005503 | 76 | 86 | 0.0 | 1.0 | 0.00 | 0.00 | 0.00 | 89 | 1011.7 |
| 20260906005024 | 76 | 86 | 0.0 | 1.0 | 0.00 | 0.00 | 0.00 | 89 | 1011.7 |
| 20260906004503 | 76 | 86 | 0.0 | 1.0 | 0.00 | 0.00 | 0.00 | 89 | 1011.6 |
| 20260906004003 | 76 | 86 | 0.0 | 1.0 | 0.00 | 0.00 | 0.00 | 89 | 1011.5 |
| 20260906003503 | 76 | 86 | 0.0 | 1.0 | 0.00 | 0.00 | 0.00 | 89 | 1011.4 |
| 20260906003003 | 76 | 86 | 0.0 | 1.0 | 0.00 | 0.00 | 0.00 | 88 | 1011.3 |
| 20260906002503 | 77 | 86 | 0.0 | 1.0 | 0.00 | 0.00 | 0.00 | 88 | 1011.3 |
| 20260906002003 | 77 | 0 | 0.0 | 0.0 | 0.00 | 0.00 | 0.00 | 87 | 1011.3 |
| 20260906001503 | 77 | 0 | 0.0 | 0.0 | 0.00 | 0.00 | 0.00 | 86 | 1011.3 |
| 20260906001024 | 77 | 86 | 0.0 | 1.0 | 0.00 | 0.00 | 0.00 | 86 | 1011.2 |
| 20260906000503 | 78 | 86 | 0.0 | 1.0 | 0.00 | 0.00 | 0.00 | 85 | 1011.3 |
| 20260906000024 | 78 | 85 | 1.0 | 2.0 | 0.00 | 0.00 | 0.00 | 85 | 1011.2 |
| 20260905235503 | 78 | 85 | 1.0 | 2.0 | 0.00 | 0.00 | 0.00 | 84 | 1011.2 |
| 20260905235003 | 78 | 85 | 0.0 | 2.0 | 0.00 | 0.00 | 0.00 | 84 | 1011.1 |
| 20260905234524 | 78 | 85 | 0.0 | 1.0 | 0.00 | 0.00 | 0.00 | 83 | 1011.1 |
| 20260905234003 | 79 | 85 | 0.0 | 2.0 | 0.00 | 0.00 | 0.00 | 82 | 1010.9 |
| 20260905233503 | 79 | 86 | 1.0 | 2.0 | 0.00 | 0.00 | 0.00 | 82 | 1010.8 |
| 20260905233003 | 79 | 86 | 0.0 | 1.0 | 0.00 | 0.00 | 0.00 | 81 | 1010.9 |
| 20260905232503 | 79 | 86 | 0.0 | 2.0 | 0.00 | 0.00 | 0.00 | 81 | 1010.9 |
| 20260905232003 | 79 | 86 | 1.0 | 2.0 | 0.00 | 0.00 | 0.00 | 82 | 1011.0 |
| 20260905231503 | 80 | 86 | 1.0 | 2.0 | 0.00 | 0.00 | 0.00 | 82 | 1011.1 |
| 20260905231003 | 80 | 87 | 0.0 | 1.0 | 0.00 | 0.00 | 0.00 | 81 | 1010.9 |
| 20260905230503 | 80 | 0 | 0.0 | 0.0 | 0.00 | 0.00 | 0.00 | 81 | 1011.0 |
| 20260905230003 | 80 | 87 | 0.0 | 1.0 | 0.00 | 0.00 | 0.00 | 80 | 1011.0 |
| 20260905225503 | 80 | 87 | 0.0 | 1.0 | 0.00 | 0.00 | 0.00 | 80 | 1011.1 |
| 20260905225003 | 80 | 88 | 0.0 | 1.0 | 0.00 | 0.00 | 0.00 | 81 | 1011.1 |
| 20260905224503 | 80 | 87 | 0.0 | 1.0 | 0.00 | 0.00 | 0.00 | 80 | 1011.1 |
| 20260905224003 | 80 | 0 | 0.0 | 0.0 | 0.00 | 0.00 | 0.00 | 81 | 1011.2 |
| 20260905223503 | 80 | 0 | 0.0 | 0.0 | 0.00 | 0.00 | 0.00 | 82 | 1011.1 |
| 20260905223024 | 80 | 0 | 0.0 | 0.0 | 0.00 | 0.00 | 0.00 | 82 | 1011.1 |
| 20260905222524 | 80 | 87 | 0.0 | 1.0 | 0.00 | 0.00 | 0.00 | 82 | 1011.1 |
| 20260905222003 | 80 | 87 | 0.0 | 1.0 | 0.00 | 0.00 | 0.00 | 82 | 1011.0 |
| 20260905221503 | 80 | 86 | 0.0 | 1.0 | 0.00 | 0.00 | 0.00 | 81 | 1011.0 |
| 20260905221024 | 80 | 86 | 0.0 | 1.0 | 0.00 | 0.00 | 0.00 | 82 | 1011.1 |
| 20260905220503 | 80 | 86 | 0.0 | 1.0 | 0.00 | 0.00 | 0.00 | 81 | 1011.1 |
| 20260905220003 | 80 | 85 | 0.0 | 1.0 | 0.00 | 0.00 | 0.00 | 81 | 1011.1 |
| 20260905215503 | 80 | 85 | 0.0 | 1.0 | 0.00 | 0.00 | 0.00 | 81 | 1011.2 |
| 20260905215003 | 80 | 84 | 0.0 | 1.0 | 0.00 | 0.00 | 0.00 | 81 | 1011.2 |
| 20260905214503 | 80 | 85 | 0.0 | 1.0 | 0.00 | 0.00 | 0.00 | 81 | 1011.2 |
| 20260905214003 | 80 | 85 | 0.0 | 1.0 | 0.00 | 0.00 | 0.00 | 82 | 1011.3 |
| 20260905213503 | 80 | 85 | 0.0 | 1.0 | 0.00 | 0.00 | 0.00 | 81 | 1011.3 |
| 20260905213003 | 80 | 85 | 0.0 | 1.0 | 0.00 | 0.00 | 0.00 | 83 | 1011.5 |
| 20260905212503 | 80 | 86 | 0.0 | 1.0 | 0.00 | 0.00 | 0.00 | 86 | 1011.6 |
| 20260905212003 | 80 | 86 | 0.0 | 1.0 | 0.00 | 0.00 | 0.00 | 86 | 1011.8 |
| 20260905211524 | 80 | 84 | 0.0 | 1.0 | 0.00 | 0.00 | 0.00 | 87 | 1011.7 |
| 20260905211003 | 79 | 84 | 0.0 | 1.0 | 0.00 | 0.00 | 0.00 | 86 | 1011.9 |
| 20260905210524 | 79 | 83 | 0.0 | 1.0 | 0.00 | 0.00 | 0.00 | 84 | 1011.8 |
| 20260905210003 | 79 | 83 | 0.0 | 1.0 | 0.00 | 0.00 | 0.00 | 86 | 1012.0 |
| 20260905205503 | 79 | 83 | 0.0 | 1.0 | 0.00 | 0.00 | 0.00 | 86 | 1012.0 |
| 20260905205003 | 79 | 83 | 0.0 | 1.0 | 0.00 | 0.00 | 0.00 | 86 | 1011.9 |
| 20260905204503 | 79 | 83 | 1.0 | 2.0 | 0.00 | 0.00 | 0.00 | 84 | 1011.7 |
| 20260905204003 | 79 | 89 | 1.0 | 3.0 | 0.00 | 0.00 | 0.00 | 84 | 1011.5 |
| 20260905203503 | 79 | 101 | 0.0 | 3.0 | 0.00 | 0.00 | 0.00 | 83 | 1011.6 |
| 20260905203003 | 79 | 131 | 0.0 | 2.0 | 0.00 | 0.00 | 0.00 | 83 | 1011.7 |
| 20260905202503 | 79 | 126 | 1.0 | 2.0 | 0.00 | 0.00 | 0.00 | 83 | 1011.6 |
| 20260905202003 | 79 | 87 | 1.0 | 3.0 | 0.00 | 0.00 | 0.00 | 81 | 1011.4 |
| 20260905201503 | 79 | 76 | 1.0 | 3.0 | 0.00 | 0.00 | 0.00 | 81 | 1011.5 |
| 20260905201003 | 80 | 86 | 1.0 | 3.0 | 0.00 | 0.00 | 0.00 | 81 | 1011.6 |
| 20260905200524 | 80 | 91 | 1.0 | 2.0 | 0.00 | 0.00 | 0.00 | 79 | 1011.7 |
| 20260905200003 | 80 | 87 | 0.0 | 1.0 | 0.00 | 0.00 | 0.00 | 78 | 1011.8 |
| 20260905195503 | 81 | 84 | 0.0 | 2.0 | 0.00 | 0.00 | 0.00 | 77 | 1011.7 |
| 20260905195004 | 82 | 84 | 1.0 | 2.0 | 0.00 | 0.00 | 0.00 | 76 | 1011.8 |
| 20260905194503 | 82 | 107 | 1.0 | 6.0 | 0.00 | 0.00 | 0.00 | 73 | 1012.2 |
| 20260905194003 | 83 | 130 | 1.0 | 6.0 | 0.00 | 0.00 | 0.00 | 70 | 1012.4 |
| 20260905193503 | 84 | 135 | 2.0 | 8.0 | 0.00 | 0.00 | 0.00 | 67 | 1012.3 |
| 20260905193003 | 85 | 167 | 4.0 | 15.0 | 0.00 | 0.00 | 0.00 | 64 | 1012.1 |
| 20260905192503 | 87 | 180 | 5.0 | 22.0 | 0.00 | 0.00 | 0.00 | 62 | 1012.4 |
| 20260905192003 | 88 | 167 | 3.0 | 22.0 | 0.00 | 0.00 | 0.00 | 62 | 1012.2 |
| 20260905191503 | 89 | 154 | 2.0 | 9.0 | 0.00 | 0.00 | 0.00 | 64 | 1011.8 |
| 20260905191003 | 90 | 156 | 1.0 | 9.0 | 0.00 | 0.00 | 0.00 | 65 | 1011.8 |
| 20260905190503 | 90 | 136 | 0.0 | 1.0 | 0.00 | 0.00 | 0.00 | 65 | 1011.6 |
| 20260905190003 | 91 | 113 | 0.0 | 2.0 | 0.00 | 0.00 | 0.00 | 65 | 1011.5 |
| 20260905185524 | 92 | 112 | 0.0 | 2.0 | 0.00 | 0.00 | 0.00 | 63 | 1011.3 |
| 20260905185003 | 93 | 65 | 0.0 | 1.0 | 0.00 | 0.00 | 0.00 | 61 | 1011.3 |
| 20260905184503 | 93 | 44 | 1.0 | 3.0 | 0.00 | 0.00 | 0.00 | 59 | 1011.3 |
| 20260905184003 | 94 | 34 | 1.0 | 3.0 | 0.00 | 0.00 | 0.00 | 58 | 1011.2 |
| 20260905183503 | 95 | 344 | 0.0 | 2.0 | 0.00 | 0.00 | 0.00 | 56 | 1011.2 |
| 20260905183003 | 96 | 320 | 0.0 | 2.0 | 0.00 | 0.00 | 0.00 | 54 | 1011.1 |
| 20260905182503 | 96 | 301 | 0.0 | 2.0 | 0.00 | 0.00 | 0.00 | 52 | 1011.5 |
| 20260905182003 | 97 | 300 | 1.0 | 3.0 | 0.00 | 0.00 | 0.00 | 50 | 1011.6 |
| 20260905181503 | 98 | 78 | 1.0 | 3.0 | 0.00 | 0.00 | 0.00 | 48 | 1011.5 |
| 20260905181003 | 100 | 97 | 0.0 | 2.0 | 0.00 | 0.00 | 0.00 | 46 | 1011.6 |
| 20260905180524 | 100 | 87 | 0.0 | 2.0 | 0.00 | 0.00 | 0.00 | 48 | 1011.6 |
| 20260905180024 | 99 | 147 | 1.0 | 3.0 | 0.00 | 0.00 | 0.00 | 46 | 1011.7 |
| 20260905175503 | 99 | 179 | 1.0 | 3.0 | 0.00 | 0.00 | 0.00 | 46 | 1011.7 |
| 20260905175003 | 100 | 133 | 1.0 | 3.0 | 0.00 | 0.00 | 0.00 | 48 | 1011.9 |
| 20260905174503 | 99 | 171 | 0.0 | 3.0 | 0.00 | 0.00 | 0.00 | 49 | 1011.9 |
| 20260905174003 | 98 | 220 | 1.0 | 3.0 | 0.00 | 0.00 | 0.00 | 52 | 1012.1 |
| 20260905173503 | 98 | 263 | 0.0 | 3.0 | 0.00 | 0.00 | 0.00 | 51 | 1012.1 |
| 20260905173003 | 97 | 167 | 0.0 | 3.0 | 0.00 | 0.00 | 0.00 | 52 | 1012.1 |
| 20260905172503 | 96 | 150 | 1.0 | 3.0 | 0.00 | 0.00 | 0.00 | 53 | 1012.3 |
| 20260905172003 | 97 | 167 | 1.0 | 5.0 | 0.00 | 0.00 | 0.00 | 50 | 1012.3 |
| 20260905171503 | 97 | 154 | 2.0 | 5.0 | 0.00 | 0.00 | 0.00 | 50 | 1012.3 |
| 20260905171024 | 97 | 111 | 2.0 | 5.0 | 0.00 | 0.00 | 0.00 | 51 | 1012.4 |
| 20260905170524 | 98 | 117 | 1.0 | 6.0 | 0.00 | 0.00 | 0.00 | 50 | 1012.4 |
| 20260905170003 | 97 | 138 | 2.0 | 6.0 | 0.00 | 0.00 | 0.00 | 50 | 1012.6 |
| 20260905165503 | 98 | 161 | 1.0 | 4.0 | 0.00 | 0.00 | 0.00 | 52 | 1012.8 |
| 20260905165003 | 98 | 86 | 1.0 | 3.0 | 0.00 | 0.00 | 0.00 | 51 | 1012.7 |
| 20260905164503 | 98 | 70 | 1.0 | 3.0 | 0.00 | 0.00 | 0.00 | 51 | 1012.8 |
| 20260905164003 | 97 | 121 | 1.0 | 3.0 | 0.00 | 0.00 | 0.00 | 52 | 1012.9 |
| 20260905163503 | 97 | 189 | 1.0 | 4.0 | 0.00 | 0.00 | 0.00 | 51 | 1013.0 |
| 20260905163024 | 96 | 193 | 1.0 | 4.0 | 0.00 | 0.00 | 0.00 | 52 | 1013.1 |
| 20260905162503 | 97 | 184 | 1.0 | 3.0 | 0.00 | 0.00 | 0.00 | 52 | 1013.2 |
| 20260905162003 | 96 | 168 | 1.0 | 3.0 | 0.00 | 0.00 | 0.00 | 54 | 1013.2 |
| 20260905161503 | 96 | 160 | 1.0 | 4.0 | 0.00 | 0.00 | 0.00 | 57 | 1013.3 |
| 20260905161003 | 96 | 185 | 1.0 | 4.0 | 0.00 | 0.00 | 0.00 | 55 | 1013.3 |
| 20260905160503 | 96 | 256 | 0.0 | 2.0 | 0.00 | 0.00 | 0.00 | 57 | 1013.3 |
| 20260905160003 | 96 | 268 | 1.0 | 3.0 | 0.00 | 0.00 | 0.00 | 57 | 1013.3 |
| 20260905155503 | 95 | 302 | 1.0 | 3.0 | 0.00 | 0.00 | 0.00 | 59 | 1013.3 |
| 20260905155003 | 95 | 11 | 1.0 | 4.0 | 0.00 | 0.00 | 0.00 | 57 | 1013.4 |
| 20260905154503 | 95 | 29 | 1.0 | 4.0 | 0.00 | 0.00 | 0.00 | 58 | 1013.4 |
| 20260905154024 | 95 | 41 | 1.0 | 4.0 | 0.00 | 0.00 | 0.00 | 60 | 1013.3 |
| 20260905153503 | 94 | 88 | 0.0 | 2.0 | 0.00 | 0.00 | 0.00 | 60 | 1013.5 |
| 20260905153003 | 94 | 329 | 0.0 | 3.0 | 0.00 | 0.00 | 0.00 | 61 | 1013.5 |
| 20260905152503 | 93 | 39 | 1.0 | 3.0 | 0.00 | 0.00 | 0.00 | 62 | 1013.5 |
| 20260905152024 | 93 | 49 | 1.0 | 3.0 | 0.00 | 0.00 | 0.00 | 65 | 1013.6 |
| 20260905151503 | 92 | 34 | 1.0 | 4.0 | 0.00 | 0.00 | 0.00 | 63 | 1013.5 |
| 20260905151003 | 92 | 11 | 1.0 | 4.0 | 0.00 | 0.00 | 0.00 | 65 | 1013.6 |
| 20260905150503 | 92 | 343 | 1.0 | 3.0 | 0.00 | 0.00 | 0.00 | 65 | 1013.6 |
| 20260905150003 | 91 | 3 | 1.0 | 3.0 | 0.00 | 0.00 | 0.00 | 65 | 1013.7 |
| 20260905145503 | 91 | 32 | 1.0 | 3.0 | 0.00 | 0.00 | 0.00 | 66 | 1013.7 |
| 20260905145003 | 91 | 25 | 1.0 | 3.0 | 0.00 | 0.00 | 0.00 | 66 | 1013.7 |
| 20260905144503 | 90 | 25 | 1.0 | 3.0 | 0.00 | 0.00 | 0.00 | 68 | 1013.7 |
| 20260905144003 | 90 | 44 | 1.0 | 3.0 | 0.00 | 0.00 | 0.00 | 69 | 1013.8 |
| 20260905143503 | 89 | 70 | 0.0 | 2.0 | 0.00 | 0.00 | 0.00 | 70 | 1013.7 |
| 20260905143024 | 89 | 45 | 1.0 | 4.0 | 0.00 | 0.00 | 0.00 | 73 | 1013.7 |
| 20260905142503 | 88 | 37 | 0.0 | 4.0 | 0.00 | 0.00 | 0.00 | 72 | 1013.8 |
| 20260905142003 | 87 | 61 | 0.0 | 2.0 | 0.00 | 0.00 | 0.00 | 76 | 1013.8 |
| 20260905141503 | 86 | 43 | 1.0 | 3.0 | 0.00 | 0.00 | 0.00 | 76 | 1013.9 |
| 20260905141003 | 85 | 54 | 1.0 | 3.0 | 0.00 | 0.00 | 0.00 | 77 | 1014.0 |
| 20260905140503 | 84 | 78 | 0.0 | 2.0 | 0.00 | 0.00 | 0.00 | 81 | 1014.1 |
| 20260905140004 | 83 | 64 | 0.0 | 2.0 | 0.00 | 0.00 | 0.00 | 82 | 1014.0 |
| 20260905135503 | 82 | 61 | 0.0 | 2.0 | 0.00 | 0.00 | 0.00 | 83 | 1014.0 |
| 20260905135003 | 82 | 44 | 0.0 | 2.0 | 0.00 | 0.00 | 0.00 | 85 | 1014.1 |
| 20260905134503 | 81 | 51 | 1.0 | 2.0 | 0.00 | 0.00 | 0.00 | 85 | 1014.2 |
| 20260905134003 | 81 | 71 | 1.0 | 2.0 | 0.00 | 0.00 | 0.00 | 86 | 1014.2 |
| 20260905133524 | 80 | 88 | 1.0 | 2.0 | 0.00 | 0.00 | 0.00 | 87 | 1014.2 |
| 20260905133024 | 80 | 90 | 1.0 | 2.0 | 0.00 | 0.00 | 0.00 | 88 | 1014.2 |
| 20260905132503 | 79 | 94 | 0.0 | 2.0 | 0.00 | 0.00 | 0.00 | 89 | 1014.1 |
| 20260905132003 | 79 | 98 | 0.0 | 2.0 | 0.00 | 0.00 | 0.00 | 90 | 1014.2 |
| 20260905131503 | 78 | 108 | 0.0 | 1.0 | 0.00 | 0.00 | 0.00 | 91 | 1014.2 |
| 20260905131003 | 78 | 108 | 0.0 | 1.0 | 0.00 | 0.00 | 0.00 | 92 | 1014.2 |
| 20260905130503 | 77 | 104 | 0.0 | 2.0 | 0.00 | 0.00 | 0.00 | 93 | 1014.2 |
| 20260905130003 | 77 | 101 | 0.0 | 2.0 | 0.00 | 0.00 | 0.00 | 94 | 1014.1 |
| 20260905125503 | 76 | 0 | 0.0 | 0.0 | 0.00 | 0.00 | 0.00 | 94 | 1014.1 |
| 20260905125003 | 76 | 60 | 0.0 | 1.0 | 0.00 | 0.00 | 0.00 | 94 | 1014.1 |
| 20260905124503 | 76 | 60 | 0.0 | 1.0 | 0.00 | 0.00 | 0.00 | 94 | 1014.0 |
| 20260905124003 | 75 | 34 | 0.0 | 2.0 | 0.00 | 0.00 | 0.00 | 94 | 1013.9 |
| 20260905123524 | 75 | 32 | 0.0 | 2.0 | 0.00 | 0.00 | 0.00 | 95 | 1014.0 |
| 20260905123003 | 75 | 92 | 0.0 | 1.0 | 0.00 | 0.00 | 0.00 | 95 | 1014.0 |
| 20260905122503 | 74 | 92 | 0.0 | 1.0 | 0.00 | 0.00 | 0.00 | 95 | 1014.0 |
| 20260905122003 | 74 | 91 | 0.0 | 1.0 | 0.00 | 0.00 | 0.00 | 95 | 1014.0 |
| 20260905121503 | 74 | 91 | 0.0 | 1.0 | 0.00 | 0.00 | 0.00 | 95 | 1014.0 |
| 20260905121003 | 74 | 0 | 0.0 | 0.0 | 0.00 | 0.00 | 0.00 | 95 | 1014.1 |
| 20260905120524 | 74 | 0 | 0.0 | 0.0 | 0.00 | 0.00 | 0.00 | 95 | 1014.0 |
| 20260905120003 | 73 | 0 | 0.0 | 0.0 | 0.00 | 0.00 | 0.00 | 95 | 1014.0 |
| 20260905115503 | 73 | 0 | 0.0 | 0.0 | 0.00 | 0.00 | 0.00 | 95 | 1013.9 |
| 20260905115003 | 73 | 0 | 0.0 | 0.0 | 0.00 | 0.00 | 0.00 | 95 | 1013.8 |
| 20260905114503 | 73 | 0 | 0.0 | 0.0 | 0.00 | 0.00 | 0.00 | 95 | 1013.8 |
| 20260905114024 | 73 | 0 | 0.0 | 0.0 | 0.00 | 0.00 | 0.00 | 95 | 1013.8 |
| 20260905113503 | 73 | 0 | 0.0 | 0.0 | 0.00 | 0.00 | 0.00 | 95 | 1013.7 |
| 20260905113003 | 73 | 0 | 0.0 | 0.0 | 0.00 | 0.00 | 0.00 | 95 | 1013.5 |
| 20260905112503 | 73 | 0 | 0.0 | 0.0 | 0.00 | 0.00 | 0.00 | 95 | 1013.5 |
| 20260905112003 | 73 | 0 | 0.0 | 0.0 | 0.00 | 0.00 | 0.00 | 95 | 1013.5 |
| 20260905111503 | 73 | 91 | 0.0 | 1.0 | 0.00 | 0.00 | 0.00 | 95 | 1013.4 |
| 20260905111003 | 73 | 91 | 0.0 | 1.0 | 0.00 | 0.00 | 0.00 | 95 | 1013.4 |
| 20260905110503 | 73 | 0 | 0.0 | 0.0 | 0.00 | 0.00 | 0.00 | 95 | 1013.3 |
| 20260905110003 | 73 | 0 | 0.0 | 0.0 | 0.00 | 0.00 | 0.00 | 95 | 1013.3 |
| 20260905105503 | 73 | 0 | 0.0 | 0.0 | 0.00 | 0.00 | 0.00 | 95 | 1013.2 |
| 20260905105003 | 73 | 0 | 0.0 | 0.0 | 0.00 | 0.00 | 0.00 | 95 | 1013.1 |
| 20260905104503 | 73 | 0 | 0.0 | 0.0 | 0.00 | 0.00 | 0.00 | 95 | 1013.1 |
| 20260905104003 | 73 | 0 | 0.0 | 0.0 | 0.00 | 0.00 | 0.00 | 95 | 1013.0 |
| 20260905103503 | 73 | 0 | 0.0 | 0.0 | 0.00 | 0.00 | 0.00 | 95 | 1013.0 |
| 20260905103003 | 73 | 0 | 0.0 | 0.0 | 0.00 | 0.00 | 0.00 | 95 | 1012.9 |
| 20260905102503 | 73 | 0 | 0.0 | 0.0 | 0.00 | 0.00 | 0.00 | 95 | 1012.8 |
| 20260905102003 | 73 | 0 | 0.0 | 0.0 | 0.00 | 0.00 | 0.00 | 95 | 1012.8 |
| 20260905101503 | 73 | 0 | 0.0 | 0.0 | 0.00 | 0.00 | 0.00 | 95 | 1012.7 |
| 20260905101003 | 73 | 0 | 0.0 | 0.0 | 0.00 | 0.00 | 0.00 | 95 | 1012.7 |
| 20260905100503 | 73 | 0 | 0.0 | 0.0 | 0.00 | 0.00 | 0.00 | 95 | 1012.6 |
| 20260905100024 | 73 | 0 | 0.0 | 0.0 | 0.00 | 0.00 | 0.00 | 94 | 1012.7 |
| 20260905095503 | 73 | 0 | 0.0 | 0.0 | 0.00 | 0.00 | 0.00 | 94 | 1012.6 |
| 20260905095003 | 73 | 0 | 0.0 | 0.0 | 0.00 | 0.00 | 0.00 | 94 | 1012.7 |
| 20260905094503 | 73 | 0 | 0.0 | 0.0 | 0.00 | 0.00 | 0.00 | 94 | 1012.8 |
| 20260905094003 | 73 | 0 | 0.0 | 0.0 | 0.00 | 0.00 | 0.00 | 94 | 1012.8 |
| 20260905093503 | 73 | 0 | 0.0 | 0.0 | 0.00 | 0.00 | 0.00 | 94 | 1012.8 |
| 20260905093003 | 73 | 0 | 0.0 | 0.0 | 0.00 | 0.00 | 0.00 | 94 | 1012.8 |
| 20260905092503 | 74 | 0 | 0.0 | 0.0 | 0.00 | 0.00 | 0.00 | 94 | 1012.9 |
| 20260905092003 | 74 | 0 | 0.0 | 0.0 | 0.00 | 0.00 | 0.00 | 94 | 1012.9 |
| 20260905091503 | 74 | 0 | 0.0 | 0.0 | 0.00 | 0.00 | 0.00 | 94 | 1012.8 |
| 20260905091003 | 74 | 0 | 0.0 | 0.0 | 0.00 | 0.00 | 0.00 | 94 | 1012.8 |
| 20260905090524 | 74 | 0 | 0.0 | 0.0 | 0.00 | 0.00 | 0.00 | 94 | 1012.9 |
| 20260905090003 | 74 | 0 | 0.0 | 0.0 | 0.00 | 0.00 | 0.00 | 94 | 1012.9 |
| 20260905085503 | 74 | 0 | 0.0 | 0.0 | 0.00 | 0.00 | 0.00 | 94 | 1012.9 |
| 20260905085024 | 74 | 0 | 0.0 | 0.0 | 0.00 | 0.00 | 0.00 | 94 | 1012.9 |
| 20260905084524 | 74 | 0 | 0.0 | 0.0 | 0.00 | 0.00 | 0.00 | 94 | 1013.0 |
| 20260905084024 | 74 | 92 | 0.0 | 1.0 | 0.00 | 0.00 | 0.00 | 94 | 1013.0 |
| 20260905083503 | 74 | 92 | 0.0 | 1.0 | 0.00 | 0.00 | 0.00 | 94 | 1013.0 |
| 20260905083003 | 74 | 92 | 0.0 | 1.0 | 0.00 | 0.00 | 0.00 | 94 | 1013.1 |
| 20260905082503 | 74 | 0 | 0.0 | 0.0 | 0.00 | 0.00 | 0.00 | 94 | 1013.2 |
| 20260905082003 | 74 | 0 | 0.0 | 0.0 | 0.00 | 0.00 | 0.00 | 93 | 1013.2 |
| 20260905081524 | 74 | 0 | 0.0 | 0.0 | 0.00 | 0.00 | 0.00 | 93 | 1013.2 |
| 20260905081003 | 74 | 0 | 0.0 | 0.0 | 0.00 | 0.00 | 0.00 | 93 | 1013.3 |
| 20260905080503 | 74 | 0 | 0.0 | 0.0 | 0.00 | 0.00 | 0.00 | 93 | 1013.3 |
| 20260905080003 | 74 | 0 | 0.0 | 0.0 | 0.00 | 0.00 | 0.00 | 93 | 1013.3 |
| 20260905075503 | 74 | 0 | 0.0 | 0.0 | 0.00 | 0.00 | 0.00 | 93 | 1013.3 |
| 20260905075003 | 74 | 0 | 0.0 | 0.0 | 0.00 | 0.00 | 0.00 | 93 | 1013.4 |
| 20260905074503 | 74 | 0 | 0.0 | 0.0 | 0.00 | 0.00 | 0.00 | 93 | 1013.4 |
| 20260905074024 | 74 | 0 | 0.0 | 0.0 | 0.00 | 0.00 | 0.00 | 93 | 1013.4 |
| 20260905073503 | 74 | 0 | 0.0 | 0.0 | 0.00 | 0.00 | 0.00 | 92 | 1013.4 |
| 20260905073003 | 74 | 0 | 0.0 | 0.0 | 0.00 | 0.00 | 0.00 | 92 | 1013.5 |
| 20260905072503 | 75 | 0 | 0.0 | 0.0 | 0.00 | 0.00 | 0.00 | 92 | 1013.6 |
| 20260905072024 | 75 | 0 | 0.0 | 0.0 | 0.00 | 0.00 | 0.00 | 92 | 1013.5 |
| 20260905071503 | 75 | 0 | 0.0 | 0.0 | 0.00 | 0.00 | 0.00 | 92 | 1013.5 |
| 20260905071003 | 75 | 0 | 0.0 | 0.0 | 0.00 | 0.00 | 0.00 | 91 | 1013.6 |
| 20260905070503 | 75 | 92 | 0.0 | 1.0 | 0.00 | 0.00 | 0.00 | 92 | 1013.6 |
| 20260905070003 | 75 | 92 | 0.0 | 1.0 | 0.00 | 0.00 | 0.00 | 91 | 1013.6 |
| 20260905065503 | 75 | 0 | 0.0 | 0.0 | 0.00 | 0.00 | 0.00 | 91 | 1013.6 |
| 20260905065003 | 75 | 0 | 0.0 | 0.0 | 0.00 | 0.00 | 0.00 | 91 | 1013.7 |
| 20260905064503 | 75 | 0 | 0.0 | 0.0 | 0.00 | 0.00 | 0.00 | 91 | 1013.6 |
| 20260905064003 | 75 | 0 | 0.0 | 0.0 | 0.00 | 0.00 | 0.00 | 91 | 1013.7 |
| 20260905063503 | 76 | 0 | 0.0 | 0.0 | 0.00 | 0.00 | 0.00 | 91 | 1013.7 |
| 20260905063003 | 76 | 91 | 0.0 | 1.0 | 0.00 | 0.00 | 0.00 | 91 | 1013.8 |
| 20260905062503 | 76 | 91 | 0.0 | 1.0 | 0.00 | 0.00 | 0.00 | 91 | 1013.8 |
| 20260905062003 | 76 | 0 | 0.0 | 0.0 | 0.00 | 0.00 | 0.00 | 91 | 1013.8 |
| 20260905061524 | 76 | 0 | 0.0 | 0.0 | 0.00 | 0.00 | 0.00 | 91 | 1014.0 |
| 20260905061003 | 76 | 0 | 0.0 | 0.0 | 0.00 | 0.00 | 0.00 | 90 | 1014.0 |
| 20260905060503 | 76 | 0 | 0.0 | 0.0 | 0.00 | 0.00 | 0.00 | 90 | 1013.9 |
| 20260905060024 | 76 | 0 | 0.0 | 0.0 | 0.00 | 0.00 | 0.00 | 90 | 1014.1 |
| 20260905055503 | 76 | 0 | 0.0 | 0.0 | 0.00 | 0.00 | 0.00 | 90 | 1014.1 |
| 20260905055003 | 76 | 92 | 0.0 | 1.0 | 0.00 | 0.00 | 0.00 | 90 | 1014.2 |
| 20260905054503 | 76 | 92 | 0.0 | 1.0 | 0.00 | 0.00 | 0.00 | 89 | 1014.2 |
| 20260905054003 | 76 | 0 | 0.0 | 0.0 | 0.00 | 0.00 | 0.00 | 89 | 1014.2 |
| 20260905053524 | 77 | 0 | 0.0 | 0.0 | 0.00 | 0.00 | 0.00 | 90 | 1014.2 |
| 20260905053003 | 77 | 0 | 0.0 | 0.0 | 0.00 | 0.00 | 0.00 | 90 | 1014.3 |
| 20260905052503 | 77 | 92 | 0.0 | 1.0 | 0.00 | 0.00 | 0.00 | 90 | 1014.3 |